Live-Position
3D-Globus wird geladen...
Über Starlink 2633
Group: 3 satellites
Beschreibung wird geladen...
Nächste Überflüge
Passes for default location (London). Set your location on the main map for personalized predictions.
Höhenverlauf
Loading altitude history...
No altitude history available
Zweizeiliger Elementsatz
1 48435U 21040H 26126.60640742 .00010083 00000-0 33604-3 0 9998
2 48435 53.1608 255.9779 0001413 75.7984 284.3175 15.31721188275722
Epoch: 6. Mai 2026 •
Age: 9 hours
Aktueller Status
Höhe 473.1 km
Geschwindigkeit 7.63 km/s
Subsatellitenpunkt -7.19°S,
133.19°W
Startdatum 9. Mai 2021
Alter 4.9 years
Typ internet
Startgruppe
Falcon 9 •
Launch 27 •
43 satellites
Starlink 2461
48428
Starlink 2700 48431
Starlink 2680 48432
Starlink 2699 48433
Starlink 2692 48434
Starlink 2639 48436
Starlink 2642 48437
Starlink 2640 48438
Starlink 2583 48439
Starlink 2682 48440
Starlink 2702 48441
Starlink 2644 48442
Starlink 2663 48443
Starlink 2645 48444
Starlink 2634 48445
Starlink 2655 48449
Starlink 2703 48452
Starlink 2620 48453
Starlink 2654 48454
Starlink 2497 48455
...and 22 more
Technische Details
Klassifizierung Payload
Masse 260.00 kg
Trockenmasse 248.00 kg
Gesamtmasse 260.00 kg
Länge 0.20 m
Durchmesser 2.80 m
Spannweite 9.00 m
Form Box + pan
Hersteller SPXS
Bus-Typ Starlink
Phasenstatus In Orbit
Besitzer/Staat SPXS/US
Most Searched
Loading...